Tracking 20621 objects as of 31-Mar-2020
HD Live streaming from Space Station
objects crossing your sky now

METEOR 2-17 DEB

Track METEOR 2-17 DEB now!
10-day predictions


NORAD ID: 38541
Int'l Code: 1988-005AU
Perigee: 910.6 km
Apogee: 917.7 km
Inclination: 82.5 °
Period: 103.1 minutes
Semi major axis: 7285 km
RCS: 0.003 m2 (small)
Launch date: January 30, 1988
Source: Commonwealth of Independent States (former USSR) (CIS)
Launch site: PLESETSK MISSILE AND SPACE COMPLEX (PKMTR)

Note: This is SATELLITE DEBRIS
aabbcc
Your satellite tracking list
Your tracking list is empty




NASA's NSSDC Master Catalog

Two Line Element Set (TLE):
1 38541U 88005AU  20089.30769251 +.00000374 +00000-0 +26096-3 0  9994
2 38541 082.5263 292.7894 0004880 255.8654 104.1970 13.96183322341496
Source of the keplerian elements: AFSPC